TimeCST,TemperatureF,Dew PointF,Humidity,Sea Level PressureIn,VisibilityMPH,Wind Direction,Wind SpeedMPH,Gust SpeedMPH,PrecipitationIn,Events,Conditions,WindDirDegrees,DateUTC
12:52 AM,32.0,28.9,88,30.40,10.0,Calm,Calm,-,N/A,,Clear,0,2012-11-16 06:52:00
2:52 AM,30.0,28.9,96,30.41,9.0,Calm,Calm,-,N/A,,Clear,0,2012-11-16 08:52:00
3:52 AM,30.0,27.0,88,30.42,8.0,Calm,Calm,-,N/A,,Clear,0,2012-11-16 09:52:00
4:52 AM,30.0,27.0,88,30.42,8.0,Calm,Calm,-,N/A,,Clear,0,2012-11-16 10:52:00
6:52 AM,28.9,27.0,92,30.43,7.0,Calm,Calm,-,N/A,,Clear,0,2012-11-16 12:52:00
7:52 AM,30.9,28.9,92,30.45,6.0,Calm,Calm,-,N/A,,Clear,0,2012-11-16 13:52:00
8:52 AM,41.0,36.0,82,30.47,10.0,Calm,Calm,-,N/A,,Clear,0,2012-11-16 14:52:00
9:52 AM,50.0,39.0,66,30.47,10.0,Calm,Calm,-,N/A,,Clear,0,2012-11-16 15:52:00
10:52 AM,55.9,36.0,47,30.46,10.0,Calm,Calm,-,N/A,,Clear,0,2012-11-16 16:52:00
11:52 AM,59.0,34.0,39,30.43,10.0,Calm,Calm,-,N/A,,Clear,0,2012-11-16 17:52:00
12:52 PM,61.0,34.0,36,30.40,10.0,Calm,Calm,-,N/A,,Clear,0,2012-11-16 18:52:00
1:52 PM,63.0,35.1,35,30.39,10.0,Calm,Calm,-,N/A,,Clear,0,2012-11-16 19:52:00
2:52 PM,62.1,33.1,34,30.38,10.0,Calm,Calm,-,N/A,,Clear,0,2012-11-16 20:52:00
3:52 PM,61.0,34.0,36,30.38,10.0,SSE,4.6,-,N/A,,Clear,160,2012-11-16 21:52:00
4:52 PM,59.0,34.0,39,30.38,10.0,Calm,Calm,-,N/A,,Clear,0,2012-11-16 22:52:00
5:52 PM,45.0,35.1,68,30.38,10.0,Calm,Calm,-,N/A,,Clear,0,2012-11-16 23:52:00
6:52 PM,44.1,35.1,71,30.39,10.0,Calm,Calm,-,N/A,,Clear,0,2012-11-17 00:52:00
7:52 PM,39.0,32.0,76,30.40,10.0,Calm,Calm,-,N/A,,Clear,0,2012-11-17 01:52:00
8:52 PM,37.0,32.0,82,30.39,10.0,Calm,Calm,-,N/A,,Clear,0,2012-11-17 02:52:00
9:52 PM,37.0,32.0,82,30.40,10.0,Calm,Calm,-,N/A,,Clear,0,2012-11-17 03:52:00
10:52 PM,35.1,30.9,85,30.39,10.0,Calm,Calm,-,N/A,,Clear,0,2012-11-17 04:52:00
11:52 PM,34.0,30.0,85,30.39,10.0,Calm,Calm,-,N/A,,Clear,0,2012-11-17 05:52:00